User: anonymous   Login
Location: Mascot Post Office (historical)
(40.2645°N, 99.5462°W)
Time: 08:12:46
(UTC+00:00)
Language:

Cosmos 1900 - Orbit

View from above orbital plane
View from above orbital plane
View from above satellite
View from above satellite

Ground track
Ground track

The orbit data is extracted from the following two-line orbital elements,

1 18665U 87101A   20272.76476613 -.00000071 +00000-0 +77055-5 0  9994
2 18665 066.0831 092.5820 0044406 298.9065 060.7589 14.54487039744831
Epoch (UTC): 28 September 2020 18:21:15
Eccentricity: 0.0044406
inclination: 66.0831°
perigee height: 679 km
apogee height: 742 km
right ascension of ascending node: 92.5820°
argument of perigee: 298.9065°
revolutions per day: 14.54487039
mean anomaly at epoch: 60.7589°
orbit number at epoch: 74483

The dashed part of the orbit path shows where the satellite is in the earth's shadow,  

DLR